Regional Weather Roundup
Issued by NWS

Home | Current Version | Previous Version | Text Only | Print | Product List | Glossary On
Versions: 1 2 3 4 5 6 7 8 9 10 11 12 13 14 15 16 17 18 19 20 21 22 23 24 25 26 27 28 29 30 31 32 33 34 35 36 37 38 39 40 41 42 43 44 45 46 47 48 49 50
000
ASUS43 KBIS 231110
RWRND

NORTH DAKOTA REGIONAL WEATHER ROUNDUP
NATIONAL WEATHER SERVICE BISMARCK ND
600 AM CDT SAT JUL 23 2016

NOTE: "FAIR" INDICATES FEW OR NO CLOUDS BELOW 12,000 FEET WITH NO
SIGNIFICANT WEATHER AND/OR OBSTRUCTIONS TO VISIBILITY.


NDZ001>003-009>011-017-231200-
NORTHWEST NORTH DAKOTA

CITY           SKY/WX    TMP DP  RH WIND       PRES   REMARKS
WILLISTON      PTCLDY    69  62  78 SW10      29.80R
MINOT          CLOUDY    69  63  81 S13       29.77F
MINOT AFB      TSTM      66  63  88 S23G29    29.75F
$$

NDZ018>021-031>035-040>046-231200-
SOUTHWEST NORTH DAKOTA

CITY           SKY/WX    TMP DP  RH WIND       PRES   REMARKS
BISMARCK       CLOUDY    70  63  78 NE9       29.82F
DICKINSON      CLOUDY    64  60  87 E7        29.83R
GARRISON         N/A     68  64  87 E13       29.77F
HETTINGER ARPT CLEAR     64  60  87 SE9       29.81F
$$

NDZ004>008-012>016-024-026-027-054-231200-
NORTHEAST NORTH DAKOTA

CITY           SKY/WX    TMP DP  RH WIND       PRES   REMARKS
GRAND FORKS    CLOUDY    71  62  73 S6        29.87R
GRND FRKS AFB  CLOUDY    70  62  77 S7        29.89R
DEVILS LAKE    RAIN      69  63  81 S5        29.89F
$$

NDZ022-023-025-028>030-036>039-047>053-231200-
SOUTHEAST NORTH DAKOTA

CITY           SKY/WX    TMP DP  RH WIND       PRES   REMARKS
FARGO          CLOUDY    76  61  59 SE10      29.86R
JAMESTOWN      CLOUDY    67  64  90 NE7       29.84F
$$





USA.gov is the U.S. government's official web portal to all federal, state and local government web resources and services.